Location: Chevoux
(46.3801°N, 4.9476°E)
Time: 03:57:07
(UTC+00:00)

Envisat - Pass Details

Date: 07 December 2021
Orbit: 764 x 766 km, 98.2° (Epoch: 16 January)

Event Time Altitude Azimuth Distance (km) Brightness Sun altitude
Rises 05:19:10 0° 8° (N) 3,244 6.2 -18.3°
Reaches altitude 10° 05:21:32 10° 4° (N) 2,313 5.4 -17.9°
Maximum altitude 05:26:26 50° 290° (WNW) 976 3.1 -17.0°
Drops below altitude 10° 05:31:18 10° 216° (SW) 2,296 5.3 -16.2°
Sets 05:33:39 0° 211° (SSW) 3,218 6.1 -15.8°
